Terminal Aerodrome Forecast
Issued by NWS

Home | Current Version | Previous Version | Text Only | Print | Product List | Glossary On
Versions: 1 2 3 4 5 6 7 8 9 10 11 12 13 14
865
FTUS43 KOAX 051503 AAA
TAFBFF
TAF AMD
KBFF 051503Z 0515/0612 30009KT P6SM SCT100
     FM051700 31020G30KT P6SM SCT080 BKN150
     FM052300 32015G21KT P6SM BKN100
     FM060400 30011KT P6SM SKC=

USA.gov is the U.S. government's official web portal to all federal, state and local government web resources and services.